This is the latest recevied weather packets stored in our database for station/object WX5RP. If no packets are shown the sender has not sent any weather packets the latest 10 day(s).
| Time | Temp. | Humidity | Pressure | Rain* | Wind** | Luminosity | Snow |
|---|---|---|---|---|---|---|---|
| 1777546517 | -0.56° C | 74% | 1021.2 hPa | 0 mm | - | 0 W/m² | - |
| 1777545916 | -0.56° C | 73% | 1021.2 hPa | 0 mm | - | 0 W/m² | - |
| 1777545320 | 0° C | 72% | 1021.2 hPa | 0 mm | - | 0 W/m² | - |
| 1777544716 | 1.67° C | 72% | 1021.2 hPa | 0 mm | - | 0 W/m² | - |
| 1777544117 | 1.67° C | 73% | 1021.2 hPa | 0 mm | - | 0 W/m² | - |
| 1777543516 | 1.67° C | 73% | 1021.2 hPa | 0 mm | - | 0 W/m² | - |
| 1777542916 | 1.67° C | 73% | 1021 hPa | 0 mm | - | 0 W/m² | - |
| 1777542316 | 2.22° C | 72% | 1021.3 hPa | 0 mm | - | 0 W/m² | - |
| 1777541718 | 2.22° C | 70% | 1021.5 hPa | 0 mm | - | 0 W/m² | - |
| 1777541116 | 2.78° C | 71% | 1021.7 hPa | 0 mm | - | 0 W/m² | - |
| 1777540516 | 2.78° C | 70% | 1021.7 hPa | 0 mm | - | 0 W/m² | - |
| 1777539918 | 2.78° C | 71% | 1021.7 hPa | 0 mm | - | 0 W/m² | - |
| 1777539316 | 2.22° C | 72% | 1021.7 hPa | 0 mm | - | 0 W/m² | - |
| 1777538716 | 2.78° C | 70% | 1021.7 hPa | 0 mm | - | 0 W/m² | - |
| 1777538116 | 2.78° C | 71% | 1021.7 hPa | 0 mm | - | 0 W/m² | - |
| 1777537516 | 2.78° C | 70% | 1021.8 hPa | 0 mm | - | 0 W/m² | - |
| 1777536916 | 2.78° C | 71% | 1021.8 hPa | 0 mm | - | 0 W/m² | - |
| 1777536317 | 3.33° C | 69% | 1021.7 hPa | 0 mm | - | 0 W/m² | - |
| 1777535716 | 3.33° C | 69% | 1021.7 hPa | 0 mm | - | 0 W/m² | - |
| 1777535116 | 3.89° C | 68% | 1021.7 hPa | 0 mm | - | 0 W/m² | - |
| 1777534515 | 4.44° C | 66% | 1021 hPa | 0 mm | - | 0 W/m² | - |
| 1777533915 | 4.44° C | 65% | 1021.3 hPa | 0 mm | - | 0 W/m² | - |
| 1777533315 | 5° C | 64% | 1021.3 hPa | 0 mm | - | 0 W/m² | - |
| 1777532715 | 5° C | 64% | 1021.5 hPa | 0 mm | - | 0 W/m² | - |
| 1777532115 | 5.56° C | 63% | 1021.1 hPa | 0 mm | - | 0 W/m² | - |
* Rain latest hour (hover to see other rain measurements)
** Current wind speed in m/s (hover to see current wind gust speed)